Terminal Aerodrome Forecast
Issued by NWS Wilmington, OH

Current Version | Previous Version | Graphics & Text | Print | Product List | Glossary On
Versions: 1 2 3 4 5 6 7 8 9 10 11 12 13 14 15 16 17 18 19 20
000
FTUS41 KILN 240529
TAFILN
TAF
KILN 240529Z 2406/2506 14006KT P6SM FEW050 OVC150
     FM241300 14005KT P6SM SCT025 OVC050
     FM241500 14005KT P6SM VCSH OVC050
     FM241900 14005KT 4SM SHRA VCTS OVC025CB
     FM250000 26009KT P6SM VCSH BKN015=

USA.gov is the U.S. government's official web portal to all federal, state and local government web resources and services.